Location: Chena
(64.8152°N, 147.9227°W)
Time: 08:10:01
(UTC+00:00)

N. Korean satellite - Pass Details

Date: 29 January 2021
Orbit: 451 x 502 km, 97.2° (Epoch: 08 March)

Event Time Altitude Azimuth Distance (km) Brightness Sun altitude
Rises 02:37:27 0° 182° (S) 2,567 10.7 -7.3°
Reaches altitude 10° 02:39:37 10° 191° (S) 1,681 9.9 -7.5°
Maximum altitude 02:43:02 39° 261° (W) 741 8.2 -7.9°
Drops below altitude 10° 02:46:26 10° 332° (NNW) 1,664 9.3 -8.2°
Sets 02:48:34 0° 341° (NNW) 2,538 10.2 -8.4°
